This is the latest recevied weather packets stored in our database for station/object K3BAY-1. If no packets are shown the sender has not sent any weather packets the latest 10 day(s).
| Time | Temp. | Humidity | Pressure | Rain* | Wind** | Luminosity | Snow |
|---|---|---|---|---|---|---|---|
| 1778009767 | 29.44° C | 32% | 1012.9 hPa | 0 mm | - | 559 W/m² | - |
| 1778009464 | 30° C | 31% | 1013.2 hPa | 0 mm | - | 615 W/m² | - |
| 1778009164 | 29.44° C | 32% | 1012.9 hPa | 0 mm | - | 625 W/m² | - |
| 1778008860 | 30° C | 31% | 1012.9 hPa | 0 mm | - | 633 W/m² | - |
| 1778008558 | 29.44° C | 31% | 1012.9 hPa | 0 mm | - | 615 W/m² | - |
| 1778008256 | 30° C | 31% | 1012.9 hPa | 0 mm | - | 655 W/m² | - |
| 1778007950 | 29.44° C | 31% | 1013.2 hPa | 0 mm | - | 632 W/m² | - |
| 1778007647 | 30° C | 32% | 1012.9 hPa | 0 mm | - | 638 W/m² | - |
| 1778007344 | 29.44° C | 32% | 1012.9 hPa | 0 mm | - | 652 W/m² | - |
| 1778007040 | 30° C | 32% | 1013.2 hPa | 0 mm | - | 677 W/m² | - |
| 1778006737 | 30° C | 33% | 1012.9 hPa | 0 mm | - | 672 W/m² | - |
| 1778006433 | 30.56° C | 32% | 1012.9 hPa | 0 mm | - | 664 W/m² | - |
| 1778006130 | 30° C | 32% | 1013.2 hPa | 0 mm | - | 629 W/m² | - |
| 1778005828 | 30.56° C | 32% | 1012.9 hPa | 0 mm | - | 640 W/m² | - |
| 1778005524 | 31.11° C | 31% | 1012.9 hPa | 0 mm | - | 690 W/m² | - |
| 1778005221 | 30.56° C | 30% | 1013.2 hPa | 0 mm | - | 717 W/m² | - |
| 1778004917 | 29.44° C | 33% | 1012.9 hPa | 0 mm | - | 733 W/m² | - |
| 1778004615 | 28.89° C | 33% | 1012.9 hPa | 0 mm | - | 730 W/m² | - |
| 1778004311 | 30° C | 32% | 1013.2 hPa | 0 mm | - | 724 W/m² | - |
| 1778004009 | 29.44° C | 33% | 1013.2 hPa | 0 mm | - | 726 W/m² | - |
| 1778003703 | 29.44° C | 31% | 1012.9 hPa | 0 mm | - | 747 W/m² | - |
| 1778003401 | 28.89° C | 33% | 1012.9 hPa | 0 mm | - | 746 W/m² | - |
| 1778003098 | 28.89° C | 36% | 1012.9 hPa | 0 mm | - | 750 W/m² | - |
| 1778002794 | 28.33° C | 35% | 1012.9 hPa | 0 mm | - | 759 W/m² | - |
| 1778002490 | 28.89° C | 36% | 1012.9 hPa | 0 mm | - | 762 W/m² | - |
* Rain latest hour (hover to see other rain measurements)
** Current wind speed in m/s (hover to see current wind gust speed)